Torna al catalogo

CZ-6A DEB

AttivoPO
NORAD 54523·DEBRIS·🇨🇳 China

Lanciato Nov 11, 2022 da Taiyuan Satellite Launch Center

Loading…

Prossimi Passaggi (prossime 24 ore)

TLE

AggiornatoSource: Space-Track

Epoca: Sep 14, 2026, 06:16 UTC

1 54523U 22151KB  26257.26166753  .00031899  00000-0  20433-2 0  9992
2 54523  98.7107  17.2086 0053042 267.5439  91.9712 15.07306799205370

Traccia CZ-6A DEB in tempo reale con AllMySat

Download on the App Store